STARLINK-30139

decayed
NORAD ID: 56829 Int'l Des: 2023-079 Owner: SPXS Country: US Constellation: starlink
LEOCIRCULAR
グループ

STARLINK-30139について

説明を読み込み中...

高度履歴

Altitude vs Time

uPlot chart will show altitude changes over time

軌道要素

1 56829U 23079G 23187.95239846 .06549093 92950-5 75468-3 0 9997
2 56829 42.9951 11.5025 0012540 295.4351 197.5804 16.35519852 5652
Epoch: Jul 6, 2023 • Age: 19303 hours

現在のステータス

Position data unavailable
打ち上げ日 Jun 4, 2023
運用期間 2.2 years
落下予定日 Jul 7, 2023
タイプ internet

技術仕様

分類 Payload
質量 730.00 kg
乾燥質量 700.00 kg
総質量 730.00 kg
長さ 0.30 m
直径 4.10 m
スパン 29.00 m
形状 Box + pan
製造者 SPXS
バスタイプ Starlink V2M
フェーズステータス Unknown Transfer Status
所有者/国 SPXS/US

大規模コンステレーション

Loading constellations...